Location: Unspecified
(0.0000°N, 0.0000°E)
Time: 23:50:35
(UTC+00:00)

CORVUS BC2 - Pass Details

Date: 21 February 2026
Orbit: 540 x 560 km, 97.4° (Epoch: 7 March)

Event Time Altitude Azimuth Distance (km) Brightness Sun altitude
Rises 04:09:53 0° 162° (SSE) 2,746 ? -30.4°
Reaches altitude 10° 04:12:03 10° 158° (SSE) 1,848 ? -29.8°
Enters shadow 04:13:52 25° 148° (SSE) 1,143 ? -29.4°
